Retour au catalogue

STARLINK-32104

ActifCommunicationsVLEO
NORAD 59695·PAYLOAD·🇺🇸 United States

Lancé May 8, 2024 depuis Cape Canaveral Space Force Station

Loading…

Prochains Passages (prochaines 24 heures)

TLE

FraisSource: CelesTrak SupGP

Époque: Sep 15, 2026, 03:11 UTC

1 59695C 24086P   26258.13312500 -.00034282  00000+0 -12418-2 0  2588
2 59695  43.0022  66.7311 0001762 273.4374  34.6063 15.27591348    15

Suivez STARLINK-32104 en temps réel avec AllMySat

Download on the App Store